Back to catalog

STARLINK-34559

AliveCommunicationsVLEO
NORAD 64706·PAYLOAD·🇺🇸 United States

Launched Jun 28, 2025 from Vandenberg Space Force Base

Loading…

Next Passes (next 24 hours)

TLE

FreshSource: CelesTrak SupGP

Epoch: Sep 14, 2026, 15:41 UTC

1 64706C 25142L   26257.65395833  .00075802  00000+0  26381-2 0  2571
2 64706  70.0012 196.4624 0003400 264.3626 130.7503 15.29525638    19

Track STARLINK-34559 in real time with AllMySat

Download on the App Store